Погода в Орисабе

Мексика     18°50′44″N   97°06′19″W
темп.,
°C
ветер,
м/с
пор.,
м/с
влажн.,
%
обл.,
%
осадки,
мм/ч
давл.,
гПа
погр.,
м
7 мая, пт
пт701:00+16зюз119225 6.4 102133
04:00+16з11927 0.3 101915
07:00+15зюз219325 0.4 102025
10:00+21в12666 0.1 1020765
13:00+25в344820 0.5 10191609
16:00+23в345699 0.4 10171620
19:00+19в2285100 2.1 1018273
22:00+16юв019452 1.2 1021103
8 мая, сб
сб801:00+15зюз229216 1.3 102053
04:00+14зюз228347 0.0 101838
07:00+13зюз227082 0.0 101937
10:00+21в21437 0.0 1018676
13:00+25всв32414 0.0 10161233
16:00+25в324534 0.0 10131437
19:00+22в126350 0.0 1014641
22:00+18юз118473 0.0 101676
9 мая, вс
вс901:00+17зюз228396 0.0 101637
04:00+17зюз217776 0.0 101421
07:00+17зюз216922 0.0 101425
10:00+24в225355 0.0 1014766
13:00+27в3248100 0.0 10121328
16:00+28всв3246100 0.3 10091544
19:00+24в1266100 0.8 1011119
22:00+20зюз1182100 0.8 101317
10 мая, пн
пн1001:00+19зюз2184100 1.1 101426
04:00+18зюз228357 0.0 101231
07:00+18з227987 0.0 101341
10:00+25всв215617 0.0 1013939
13:00+28в32487 0.1 10111603
16:00+29в324669 1.0 10091947
19:00+24вюв016777 3.4 101153
22:00+20з118721 1.6 101327
11 мая, вт
вт1101:00+18з2292100 5.0 101443
04:00+19з2189100 0.7 101229
07:00+18з2191100 1.3 101421
10:00+23всв117447 0.5 1015503
13:00+26в226163 3.2 10141181
16:00+25юв126499 3.2 10111002
19:00+21зюз1186100 6.0 101223
22:00+19з2294100 9.8 101564